Showing default

HAWK-9B, 59450

Orbit data source: Space-Track

HAWK-9B, 59450 is a payload satellite owned by HawkEye 360 (US) in LEO that was launched on Sun, 07 Apr 2024 UTC via an FALCON 9 launch vehicle from the Air Force Eastern Test Range (AFETR). Payload-class satellites include a variety of spacecraft equipped with specific instruments for various scientific and technological missions. These include communications satellites like Starlink; space stations such as the ISS; scientific satellites like the Hubble; Earth observation satellites from companies like Planet Labs, Umbra, and HawkEye 360; GPS; miniature CubeSats for education and research; and military/defense satellites.

Loading next visibility...
Identifier
59450, 2024-066J
Orbit
LEO
Country
Flag of USUS
Related business
Manufacturer
UTIAS-SFL
Mission
Operational Commercial Sigint
Bus & Motor
HAWK2G, Unknown motor
Mass
31 kg wet, 30 kg dry
Launch date (UTC)
2024-04-07 (2 years ago)
Launch vehicle
FALCON 9
Launch site
Air Force Eastern Test Range (AFETR)
Object type
Payload
Rocket body
Debris
Shape & HBR
Box + 2 Pan, 1.0 m
Radar Cross Section
0.240 m², Medium (>0.1 m² and < 1m²)

Expand to show TLE details & history
Last TLE update: 1 day ago

TLE from 1 day ago
0 HAWK-9B
1 59450U 24066J   25309.49004945  .00002987  00000-0  26844-3 0  9998
2 59450  45.6227 353.3062 0004939 275.6175  84.4143 14.97986807 86277
Epoch: 2025-11-05T11:45Z
TLE epoch observation values (Epoch: 2025-11-05T11:45:40.272Z)
Latitude
Longitude
131.92643°
Altitude
572.852 km
Speed
7.576 km/s
True Right ascension
23h 33m 13s
True Declination
0° 00' 00"
Sunlit
Object was in full shadow at epoch
Visualization orbit readout
Latitude
Unknown
Longitude
Unknown
Altitude
Unknown
Speed
Unknown
Apparent Right ascension
Unknown
Apparent Declination
Unknown
Sunlit
N/A
Visualization observer readout
Local Sidereal Time
08:59:35
Azimuth
Unknown
Elevation
Unknown
Doppler factor
Unknown
Orbital elements
Apogee altitude
578.037 km
Perigee altitude
571.169 km
Semi-major axis
6,952.74 km
Eccentricity
0.00049
Inclination
45.6227°
RAAN
353.3062°
Arg. of periapsis
275.6175°
True anomaly
84.47063°
Mean anomaly
84.4143°
Eccentric anomaly
84.44247°
Mean motion
3.74377 °/min
Orbital period
96.16 mins
BSTAR
0.00026844
Loading maneuver chart data...
Computing Atmospheric mass density...
Loading historical data...
Loading historical data...
Loading historical data...
Loading historical data...
Loading historical data...
Loading historical data...
Loading historical data...

Documentation

Showing up to 5 results
|